CYKA

Kamloops Airport

Airport
ICAO code
CYKA
Summary
ICAO Region
NAM
ICAO Territory
Location

Kamloops, British Columbia,

Coordinates
50° 42' 8" N , 120° 26' 31" W
KCC
Airport BS
Bird Strike
Metar
CYKA 271000Z 07008KT 40SM FEW110 SCT150 BKN250 12/03 A3004 RMK AC1AC3CI3 SLP179

Description

Regional airport located near Kamloops, British Columbia.

Climatology

Semi-arid Steppe climate (Köppen climate classification BSk) - Little precipitation, hot summers and cold winters, sometimes with large changes in temperature in a 24 hour period.

Runways

Designator Length Width Surface Rops
4/22 632 15 ASP Yes/Yes
8/26 1829 45 ASP Yes/Yes

Airport map

Aerial View

SKYbrary Partners:

Safety knowledge contributed by: